[[{"header":{"parameterUnit":"m.s-1","parameterCategory":1,"la1":30.2991,"la2":30.254,"lo1":-89.0895,"lo2":-89.0444,"dy":0.0017,"dx":0.0017,"nx":28,"ny":28,"refTime":"2023-08-04T09:00:00:Z","depth":0,"parameterNumber":2,"parameterNumberName":"U-component_of_WINDS"},"data":[0,0,0,0,0,0,0,0,0,0,0,0,0,0,0,0,0,0,0,0,0,0,0,0,0,0,0,0,0,0,0,0,0,0,0,0,0,0,0,0,0,0,0,0,0,0,0,0,0,0,0,0,0,0,0,0,0,0,4.3377,4.3378,0,4.348,4.3481,4.3482,4.3423,4.3421,4.3418,4.3415,4.3519,4.3525,4.353,0,0,0,0,0,0,0,0,0,0,0,0,0,4.3127,4.3132,4.3377,4.3378,4.3379,4.348,4.3481,4.3482,4.3424,4.342,4.3417,4.3414,4.3518,4.3524,4.3531,0,0,0,0,0,0,0,0,0,0,0,0,0,4.3234,4.3134,4.3377,4.3362,4.3362,4.3479,4.3481,4.3483,4.3425,4.342,4.3416,4.3412,4.3515,4.3523,4.3531,4.3668,0,0,4.3557,4.356,0,0,0,0,0,0,0,0,4.3228,4.3243,4.3363,4.3364,4.3363,4.3434,4.3431,4.3545,4.3426,4.3401,4.3415,4.341,4.3495,4.3504,4.3533,4.3673,4.3678,4.3557,4.3562,4.3566,4.3568,0,0,0,0,0,0,0,4.322,4.3238,4.3418,4.3365,4.3365,4.335,4.336,4.3453,4.3471,4.3403,4.3399,4.3412,4.3494,4.3525,4.3535,4.3679,4.3557,4.3564,4.3569,4.3573,4.3934,4.3938,0,0,0,0,0,0,4.3214,4.3232,4.3414,4.3421,4.3284,4.3358,4.337,4.3416,4.3469,4.3473,4.3415,4.3409,4.3513,4.3525,4.3538,4.3699,4.3566,4.3573,4.3578,4.3929,4.3935,4.394,0,0,0,0,0,0,4.3209,4.3231,4.341,4.3325,4.3347,4.3367,4.342,4.342,4.3451,4.3479,4.3482,4.3444,4.351,4.3527,4.3636,4.3702,4.3577,4.3584,4.3924,4.3931,4.3937,4.4024,0,0,0,0,0,0,4.3202,4.3229,4.3282,4.3327,4.3352,4.3507,4.3424,4.3425,4.3466,4.3458,4.3507,4.3511,4.3508,4.3624,4.3644,4.3711,4.3591,4.3918,4.3927,4.3935,4.4015,4.4033,4.4048,0,0,0,0,0,4.3193,4.3303,4.3285,4.3308,4.3418,4.3511,4.3525,4.352,4.3472,4.3524,4.3541,4.3509,4.3692,4.3636,4.3658,4.3728,4.3913,4.3924,4.3934,4.4008,4.4029,4.4048,0,0,0,0,0,0,4.3265,4.3309,4.3289,4.3417,4.3461,4.3501,4.3567,4.3544,4.3602,4.3592,4.3583,4.3595,4.3708,4.3729,4.3665,4.3862,4.3795,4.3811,4.3843,4.3864,4.388,4.3871,4.3598,0,0,0,0,0,4.3296,4.3368,4.3402,4.3511,4.3534,4.3547,4.3587,4.358,4.3624,4.3642,4.3668,4.3712,4.3779,4.3823,4.3887,4.4019,4.4027,4.4078,4.4095,4.4108,4.4121,4.4189,4.4211,4.3974,4.3974,4.3974,0,0,4.336,4.3393,4.3439,4.3527,4.3559,4.3633,4.3563,4.3644,4.3698,4.3655,4.3758,4.3778,4.3827,4.3947,4.4001,4.3969,4.4188,4.4122,4.4132,4.4137,4.4202,4.4224,4.4244,4.3982,4.398,4.3979,0,0,4.3514,4.3547,4.364,4.3674,4.3725,4.3733,4.3755,4.3799,4.381,4.3914,4.3882,4.3946,4.4063,4.4098,4.4131,4.4297,4.4268,4.4318,4.4403,4.447,4.4488,4.4505,4.4561,4.4581,4.4331,4.4331,4.4332,0,4.3587,4.3697,4.3691,4.3774,4.3812,4.3777,4.3869,4.3903,4.3972,4.3999,4.3962,4.4105,4.4136,4.4262,4.4302,4.4332,4.4355,4.4311,4.4486,4.4503,4.4518,4.4571,4.4592,4.4337,4.4336,4.4336,4.4335,0,4.3782,4.3859,4.3928,4.3994,4.4041,4.4129,4.4135,4.4183,4.4171,4.4182,4.4287,4.4323,4.4391,4.4422,4.4412,4.4546,4.4524,4.4487,4.4419,4.4546,4.4595,4.4616,4.4345,4.4343,4.4341,4.434,0,0,4.3982,4.4044,4.4069,4.4097,4.4151,4.4209,4.4295,4.4362,4.4401,4.4451,4.452,4.4619,4.4585,4.4623,4.4616,4.4675,4.48,4.4631,4.4632,4.4658,4.4946,4.4971,4.4995,4.4783,4.4787,4.479,4.4941,0,4.4136,4.4285,4.4282,4.442,4.4489,4.4456,4.453,4.457,4.4583,4.4643,4.4657,4.4726,4.4677,4.4699,4.4756,4.4773,4.4857,4.4763,4.4845,4.4848,4.483,4.5021,4.5048,4.5188,4.4961,4.4964,4.4966,0,4.4335,4.4389,4.4534,4.4575,4.4604,4.467,4.473,4.4789,4.4833,4.4838,4.4879,4.4864,4.4949,4.4881,4.4997,4.4932,4.4966,4.4979,4.4985,4.4989,4.4912,4.5027,4.5234,4.5253,4.4997,4.4995,4.4993,0,4.4462,4.4572,4.4671,4.4698,4.4749,4.4796,4.4819,4.4859,4.4899,4.4951,4.4976,4.5039,4.5072,4.512,4.5121,4.5072,4.5237,4.517,4.5241,4.5241,4.5275,4.5272,4.5486,4.5303,4.5303,4.5302,4.5302,0,4.4632,4.472,4.4729,4.479,4.4888,4.4883,4.498,4.4999,4.5035,4.5098,4.5075,4.5134,4.5133,4.5194,4.5195,4.5289,4.5305,4.531,4.5308,4.531,4.5309,4.5329,4.5318,4.5308,4.5307,4.5306,4.5305,0,4.4788,4.4798,4.4904,4.4943,4.4955,4.5025,4.5058,4.5116,4.5127,4.5207,4.5225,4.5242,4.5312,4.5318,4.54,4.54,4.5512,4.5503,4.5497,4.5494,4.5563,4.5555,4.5795,4.5825,4.5626,4.5628,4.563,0,4.4894,4.4961,4.5008,4.5048,4.5074,4.514,4.518,4.5179,4.5221,4.5276,4.5326,4.5394,4.5447,4.556,4.5579,4.564,4.5629,4.5709,4.5638,4.5636,4.5625,4.562,4.5625,4.5721,4.5723,4.5725,4.5727,0,4.508,4.5081,4.514,4.52,4.5249,4.5297,4.5341,4.5375,4.5379,4.5428,4.5499,4.554,4.5623,4.5689,4.5749,4.5772,4.5749,4.5749,4.5768,4.5768,4.5761,4.5762,4.553,4.5743,4.5741,4.574,4.5739,4.5739,4.5212,4.5269,4.531,4.5375,4.5409,4.5451,4.5505,4.5523,4.5582,4.5648,4.5645,4.5722,4.5763,4.5841,4.5868,4.5928,4.5901,4.593,4.5936,4.5942,4.5947,4.5755,4.594,4.5939,4.5939,4.5938,4.5938,0,4.5393,4.5417,4.5478,4.554,4.5592,4.5568,4.5615,4.5659,4.5728,4.5768,4.5821,4.5901,4.5965,4.5989,4.6051,4.6094,4.6085,4.611,4.6104,4.6109,4.597,4.5945,4.6116,4.6116,4.6116,4.6116,4.6115,4.6115,4.5492,4.5587,4.5593,4.5702,4.5726,4.5802,4.5831,4.5868,4.59,4.599,4.6043,4.6059,4.6092,4.6156,4.6213,4.6218,4.624,4.6269,4.6269,4.6138,4.612,4.6102,4.6079,4.6275,4.6275,4.6403,4.6405,4.6406]},{"header":{"parameterUnit":"m.s-1","parameterCategory":1,"la1":30.2991,"la2":30.254,"lo1":-89.0895,"lo2":-89.0444,"dy":0.0017,"dx":0.0017,"nx":28,"ny":28,"refTime":"2023-08-04T09:00:00:Z","depth":0,"parameterNumber":3,"parameterNumberName":"V-component_of_WINDS"},"data":[0,0,0,0,0,0,0,0,0,0,0,0,0,0,0,0,0,0,0,0,0,0,0,0,0,0,0,0,0,0,0,0,0,0,0,0,0,0,0,0,0,0,0,0,0,0,0,0,0,0,0,0,0,0,0,0,0,0,3.9804,3.9805,0,3.9879,3.988,3.9881,3.9854,3.9852,3.9851,3.9849,3.9921,3.9925,3.9928,0,0,0,0,0,0,0,0,0,0,0,0,0,3.9631,3.9634,3.9804,3.9805,3.9806,3.9879,3.988,3.9881,3.9854,3.9852,3.985,3.9848,3.992,3.9924,3.9928,0,0,0,0,0,0,0,0,0,0,0,0,0,3.9706,3.9635,3.9804,3.9801,3.9802,3.9879,3.988,3.9881,3.9855,3.9852,3.985,3.9847,3.9919,3.9924,3.9929,4.0012,0,0,3.9945,3.9947,0,0,0,0,0,0,0,0,3.9702,3.9712,3.9801,3.9802,3.9802,3.9855,3.9846,3.9925,3.9855,3.9834,3.9849,3.9846,3.9901,3.9907,3.9927,4.0015,4.0018,3.9945,3.9949,3.9951,3.9952,0,0,0,0,0,0,0,3.9697,3.9709,3.9834,3.9802,3.9803,3.9795,3.9802,3.9861,3.9881,3.9836,3.9834,3.9844,3.9901,3.9922,3.9928,4.0019,3.9945,3.995,3.9953,3.9955,4.0176,4.0179,0,0,0,0,0,0,3.9692,3.9705,3.9831,3.9836,3.9745,3.98,3.9809,3.984,3.988,3.9884,3.9846,3.9842,3.9914,3.9922,3.9931,4.0029,3.9951,3.9956,3.9959,4.0174,4.0177,4.018,0,0,0,0,0,0,3.9688,3.9703,3.9828,3.977,3.9785,3.9805,3.9841,3.9843,3.9864,3.9888,3.989,3.9864,3.9913,3.9923,3.9992,4.0031,3.9958,3.9963,4.0171,4.0175,4.0179,4.0226,0,0,0,0,0,0,3.9683,3.9702,3.9735,3.9771,3.9788,3.989,3.9844,3.9846,3.9874,3.987,3.9905,3.9909,3.9911,3.9984,3.9997,4.0037,3.9967,4.0167,4.0172,4.0177,4.0221,4.0232,4.024,0,0,0,0,0,3.9677,3.9745,3.9737,3.9753,3.9831,3.9892,3.9902,3.9905,3.9877,3.991,3.9924,3.9908,4.0025,3.9991,4.0005,4.0048,4.0165,4.0171,4.0177,4.0217,4.023,4.024,0,0,0,0,0,0,3.9712,3.975,3.9741,3.9823,3.9855,3.9887,3.9928,3.9918,3.9957,3.9951,3.9952,3.996,4.003,4.0046,4.0007,4.0129,4.009,4.01,4.0116,4.0128,4.0137,4.0132,3.9971,0,0,0,0,0,3.973,3.9778,3.9808,3.9877,3.9893,3.9908,3.9935,3.9935,3.9967,3.9979,3.9999,4.0029,4.0073,4.0101,4.0143,4.0224,4.023,4.0259,4.0269,4.0277,4.0284,4.0326,4.034,4.02,4.02,4.02,0,0,3.9766,3.9792,3.9823,3.9884,3.9909,3.9957,3.992,3.9973,4.0008,3.9987,4.0053,4.0068,4.0102,4.0176,4.021,4.0191,4.0324,4.0284,4.029,4.0294,4.0334,4.0347,4.0359,4.0204,4.0204,4.0203,0,0,3.9856,3.9882,3.9942,3.9967,4.0005,4.0014,4.0028,4.0063,4.0072,4.0139,4.0124,4.0164,4.024,4.0264,4.0286,4.0384,4.037,4.0398,4.0447,4.0488,4.0499,4.0509,4.0542,4.0555,4.0405,4.0405,4.0406,0,3.9895,3.997,3.9973,4.0028,4.0054,4.0039,4.0098,4.0122,4.0171,4.0189,4.0167,4.0261,4.0282,4.0362,4.0386,4.0404,4.0419,4.0393,4.0498,4.0507,4.0516,4.0548,4.0561,4.0409,4.0408,4.0408,4.0408,0,4.0016,4.0067,4.011,4.0159,4.0191,4.0247,4.0257,4.0289,4.0285,4.0296,4.0362,4.0388,4.0433,4.0452,4.0449,4.0531,4.0518,4.0497,4.0458,4.0533,4.0563,4.0575,4.0413,4.0412,4.0411,4.041,0,0,4.013,4.018,4.0196,4.0217,4.0257,4.0296,4.0351,4.0397,4.0423,4.0456,4.0501,4.0565,4.0546,4.0571,4.057,4.0606,4.068,4.0581,4.0582,4.0597,4.077,4.0785,4.0799,4.0671,4.0674,4.0676,4.0767,0,4.0223,4.0321,4.0325,4.0414,4.046,4.0445,4.0493,4.0521,4.0533,4.0572,4.0584,4.0628,4.0601,4.0616,4.0651,4.0664,4.0715,4.0658,4.0711,4.0713,4.0702,4.0815,4.0831,4.0916,4.0779,4.0781,4.0782,0,4.0344,4.0383,4.0476,4.0509,4.0528,4.0571,4.0613,4.0651,4.0683,4.0688,4.0716,4.071,4.0763,4.0723,4.0796,4.0757,4.0779,4.0789,4.0792,4.0796,4.0751,4.0821,4.0943,4.0955,4.0801,4.0799,4.0798,0,4.0417,4.0492,4.0557,4.0576,4.0616,4.0646,4.0664,4.0693,4.072,4.0755,4.0772,4.0814,4.0836,4.0867,4.0871,4.0842,4.0943,4.0904,4.0948,4.0948,4.0969,4.0968,4.1095,4.0985,4.0985,4.0985,4.0984,0,4.0519,4.0576,4.0591,4.0631,4.0694,4.0697,4.0759,4.0774,4.08,4.0841,4.083,4.0869,4.0872,4.0911,4.0915,4.0973,4.0984,4.0988,4.0988,4.0989,4.0988,4.1003,4.0996,4.0988,4.0987,4.0987,4.0986,0,4.0611,4.0623,4.0693,4.0725,4.0734,4.0779,4.0805,4.0843,4.0853,4.0905,4.0917,4.0933,4.0978,4.0985,4.1038,4.104,4.111,4.1105,4.11,4.1099,4.1142,4.1137,4.1282,4.1301,4.118,4.1181,4.1182,0,4.0675,4.0719,4.0756,4.0783,4.0803,4.0848,4.0875,4.0879,4.0908,4.0946,4.0979,4.1023,4.1059,4.1131,4.1146,4.1186,4.118,4.1228,4.1186,4.1185,4.118,4.1177,4.118,4.1236,4.1238,4.1239,4.124,0,4.0787,4.0791,4.0832,4.0875,4.0908,4.0942,4.0974,4.0996,4.1004,4.1037,4.1084,4.1112,4.1166,4.1209,4.1249,4.1265,4.1253,4.1253,4.1265,4.1265,4.1261,4.1263,4.1121,4.1249,4.1248,4.1248,4.1247,4.1247,4.0866,4.0904,4.0936,4.0981,4.1006,4.1036,4.1072,4.1087,4.1127,4.1172,4.1172,4.1223,4.1251,4.1303,4.1322,4.136,4.1344,4.1362,4.1366,4.137,4.1374,4.1255,4.1367,4.1367,4.1367,4.1367,4.1366,0,4.0976,4.0996,4.1038,4.1083,4.1119,4.1107,4.1141,4.117,4.1216,4.1244,4.128,4.1333,4.1375,4.1393,4.1433,4.1461,4.1456,4.1471,4.1469,4.1472,4.1386,4.1371,4.1474,4.1474,4.1474,4.1474,4.1474,4.1474,4.1038,4.1101,4.1108,4.1183,4.1201,4.1253,4.1273,4.13,4.1322,4.1382,4.1418,4.143,4.1453,4.1495,4.1532,4.1536,4.1551,4.1568,4.157,4.1489,4.1478,4.1468,4.1454,4.1572,4.1572,4.1652,4.1653,4.1653]}]]